Preview of NWS' New Version of Forecast
This preview is not operational and should not be used for support decisions.

Regional Weather Roundup (RWR)

Issued by National Weather Service (NWS)

                            
000
ASUS43 KLSX 172007
RWRMO 

WEATHER SUMMARY FOR MISSOURI
NATIONAL WEATHER SERVICE SPRINGFIELD MO
200 PM CST SUN FEB 17 2019

NOTE: "FAIR" INDICATES FEW OR NO CLOUDS BELOW 12,000 FEET WITH NO
       SIGNIFICANT WEATHER AND/OR OBSTRUCTIONS TO VISIBILITY.
       CURRENT SKY AND/OR WEATHER CONDITIONS ARE NOT AVAILABLE FOR
       CHILLICOTHE AND FARMINGTON.

MOZ001>031-035>038-043-044-053-054-172100-
...NORTHERN AND WESTERN MISSOURI...
  
CITY           SKY/WX    TMP DP  RH WIND       PRES   REMARKS
KANSAS CTY INT CLOUDY    26  18  71 W10       29.91R WCI  16          
KANSAS C DTWN  CLOUDY    28  19  69 W10       29.93R WCI  19          
LEE'S SUMMIT   CLOUDY    26  18  71 W15       29.91R WCI  14          
ST JOSEPH      CLOUDY    26  20  77 W15       29.92R WCI  14          
CHILLICOTHE      N/A     27  22  81 W9G18     29.87S WCI  18          
KIRKSVILLE     CLOUDY    29  29 100 W8        29.81R FOG     WCI  21  
     
$$
MOZ066>068-077>081-088>096-101>105-172100-
...SOUTHWEST MISSOURI...
  
CITY           SKY/WX    TMP DP  RH WIND       PRES   REMARKS
SPRINGFIELD    CLOUDY    29  23  78 NW13      29.90R WCI  19          
JOPLIN         PTSUNNY   33  24  69 W17G26    29.95F WCI  22          
BRANSON        CLOUDY    32  27  80 NW13      29.91R WCI  22          
               
$$
MOZ032>034-039>042-045>050-055>058-069>072-172100-
...CENTRAL MISSOURI...  
  
CITY           SKY/WX    TMP DP  RH WIND       PRES   REMARKS
COLUMBIA       CLOUDY    29  20  69 W16       29.86R WCI  17          
JEFFERSON CITY CLOUDY    30  20  66 W15G24    29.89R WCI  19          
ROLLA          CLOUDY    31  21  66 W15G24    29.84R WCI  20          
SEDALIA        CLOUDY    27  20  75 W17G25    29.90R WCI  14          
WHITEMAN AFB   CLOUDY    28  20  71 W20       29.75R WCI  14          
WARRENSBURG    CLOUDY    28  19  69 W15       29.92R WCI  17          
OSAGE BEACH    CLOUDY    30  23  75 W12       29.90R WCI  20          
               
$$
MOZ051-052-059>065-172100-
...EAST CENTRAL MISSOURI...
  
CITY           SKY/WX    TMP DP  RH WIND       PRES   REMARKS
ST LOUIS INTL  CLOUDY    34  30  85 W15       29.81R WCI  24          
SPIRIT OF STL  CLOUDY    33  29  85 W13G23    29.82R WCI  24          
ST CHARLES     CLOUDY    33  30  88 W15G22    29.80S WCI  23          
                   
$$
MOZ072>076-082>087-097>100-106>115-172100-
...SOUTH CENTRAL AND SOUTHEAST MISSOURI...
  
CITY           SKY/WX    TMP DP  RH WIND       PRES   REMARKS
CAPE GIRARDEAU CLOUDY    40  34  79 W15       29.82S                  
FARMINGTON     CLOUDY    36  29  75 W9G18     29.82R WCI  29          
POPLAR BLUFF   CLOUDY    39  34  82 W14       29.85R                  
WEST PLAINS    CLOUDY    33  28  81 NW12G22   29.86R WCI  24          
                                       
$$